Time,TemperatureF,DewpointF,PressureIn,WindDirection,WindDirectionDegrees,WindSpeedMPH,WindSpeedGustMPH,Humidity,HourlyPrecipIn,Conditions,Clouds,dailyrainin,SoftwareType,DateUTC
2013-09-01 00:00:00,74.4,71.3,29.79,SW,232,0.0,1.0,90,0.00,,BKN047,0.28,VWS V14.01,2013-09-01 04:00:00,
2013-09-01 00:01:00,74.4,71.3,29.79,SW,232,0.0,1.0,90,0.00,,CLR,0.00,VWS V14.01,2013-09-01 04:01:00,
2013-09-01 00:02:00,74.4,71.3,29.79,SW,232,0.0,1.0,90,0.00,,CLR,0.00,VWS V14.01,2013-09-01 04:02:00,
2013-09-01 00:07:00,74.4,71.6,29.79,SW,232,0.0,0.0,91,0.00,,CLR,0.00,VWS V14.01,2013-09-01 04:07:00,
2013-09-01 00:12:00,74.2,71.4,29.79,SW,232,0.0,0.0,91,0.00,,CLR,0.00,VWS V14.01,2013-09-01 04:12:00,
2013-09-01 00:15:00,74.2,71.4,29.78,SW,232,0.0,0.0,91,0.00,,BKN047,0.00,VWS V14.01,2013-09-01 04:15:00,
2013-09-01 00:17:00,74.2,71.4,29.78,SW,232,0.0,0.0,91,0.00,,CLR,0.00,VWS V14.01,2013-09-01 04:17:00,
2013-09-01 00:22:00,74.0,71.2,29.78,SW,232,0.0,0.0,91,0.00,,CLR,0.00,VWS V14.01,2013-09-01 04:22:00,
2013-09-01 00:27:00,74.0,71.2,29.78,SW,232,0.0,0.0,91,0.00,,CLR,0.00,VWS V14.01,2013-09-01 04:27:00,
2013-09-01 00:30:00,74.0,71.2,29.78,SW,232,0.0,0.0,91,0.00,,BKN047,0.00,VWS V14.01,2013-09-01 04:30:00,
2013-09-01 00:32:00,74.0,71.2,29.78,SW,232,0.0,0.0,91,0.00,,CLR,0.00,VWS V14.01,2013-09-01 04:32:00,
2013-09-01 00:37:00,73.9,71.1,29.78,SW,232,0.0,0.0,91,0.00,,CLR,0.00,VWS V14.01,2013-09-01 04:37:00,
2013-09-01 00:42:00,73.9,71.1,29.78,SW,232,0.0,0.0,91,0.00,,CLR,0.00,VWS V14.01,2013-09-01 04:42:00,
2013-09-01 00:45:00,73.9,71.1,29.78,SW,230,2.0,2.0,91,0.00,,BKN047,0.00,VWS V14.01,2013-09-01 04:45:00,
2013-09-01 00:47:00,73.9,71.1,29.78,SSE,151,0.0,2.0,91,0.00,,CLR,0.00,VWS V14.01,2013-09-01 04:47:00,
2013-09-01 00:52:00,73.7,70.9,29.78,South,169,0.0,2.0,91,0.00,,CLR,0.00,VWS V14.01,2013-09-01 04:52:00,
2013-09-01 00:57:00,73.7,71.2,29.78,South,169,0.0,2.0,92,0.00,,CLR,0.00,VWS V14.01,2013-09-01 04:57:00,
2013-09-01 01:00:00,73.5,71.0,29.78,South,171,0.0,2.0,92,0.00,,BKN047,0.00,VWS V14.01,2013-09-01 05:00:00,
2013-09-01 01:02:00,73.5,71.0,29.78,South,171,0.0,1.0,92,0.00,,CLR,0.00,VWS V14.01,2013-09-01 05:02:00,
2013-09-01 01:07:00,73.5,71.0,29.78,SSW,199,0.0,5.0,92,0.00,,CLR,0.00,VWS V14.01,2013-09-01 05:07:00,
2013-09-01 01:12:00,73.5,71.0,29.78,SSW,205,0.0,5.0,92,0.00,,CLR,0.00,VWS V14.01,2013-09-01 05:12:00,
2013-09-01 01:15:00,73.5,71.0,29.79,SSW,205,0.0,5.0,92,0.00,,BKN047,0.00,VWS V14.01,2013-09-01 05:15:00,
2013-09-01 01:17:00,73.5,71.0,29.79,SSW,205,0.0,5.0,92,0.00,,CLR,0.00,VWS V14.01,2013-09-01 05:17:00,
2013-09-01 01:22:00,73.5,71.0,29.79,SSW,203,0.0,2.0,92,0.00,,CLR,0.00,VWS V14.01,2013-09-01 05:22:00,
2013-09-01 01:27:00,73.5,71.0,29.79,SSW,203,0.0,3.0,92,0.00,,CLR,0.00,VWS V14.01,2013-09-01 05:27:00,
2013-09-01 01:30:00,73.3,70.8,29.79,SSW,205,0.0,3.0,92,0.00,,BKN047,0.00,VWS V14.01,2013-09-01 05:30:00,
2013-09-01 01:32:00,73.3,70.8,29.79,SSW,203,0.0,3.0,92,0.00,,CLR,0.00,VWS V14.01,2013-09-01 05:32:00,
2013-09-01 01:37:00,73.3,70.8,29.79,SSW,205,0.0,0.0,92,0.00,,CLR,0.00,VWS V14.01,2013-09-01 05:37:00,
2013-09-01 01:42:00,73.3,70.8,29.79,SSW,205,0.0,0.0,92,0.00,,CLR,0.00,VWS V14.01,2013-09-01 05:42:00,
2013-09-01 01:45:00,73.2,70.7,29.79,SSW,205,0.0,0.0,92,0.00,,BKN047,0.00,VWS V14.01,2013-09-01 05:45:00,
2013-09-01 01:47:00,73.2,70.7,29.79,SSW,205,0.0,0.0,92,0.00,,CLR,0.00,VWS V14.01,2013-09-01 05:47:00,
2013-09-01 01:52:00,73.2,70.7,29.79,SSW,205,0.0,0.0,92,0.00,,CLR,0.00,VWS V14.01,2013-09-01 05:52:00,
2013-09-01 01:57:00,73.0,70.5,29.79,SSW,205,0.0,0.0,92,0.00,,CLR,0.00,VWS V14.01,2013-09-01 05:57:00,
2013-09-01 02:00:00,73.0,70.9,29.79,SSW,205,0.0,0.0,93,0.00,,BKN047,0.00,VWS V14.01,2013-09-01 06:00:00,
2013-09-01 02:02:00,73.0,70.9,29.79,SSW,203,0.0,0.0,93,0.00,,CLR,0.00,VWS V14.01,2013-09-01 06:02:00,
2013-09-01 02:07:00,72.8,70.7,29.79,SSW,205,0.0,0.0,93,0.00,,CLR,0.00,VWS V14.01,2013-09-01 06:07:00,
2013-09-01 02:12:00,72.8,70.7,29.79,SSW,203,0.0,0.0,93,0.00,,CLR,0.00,VWS V14.01,2013-09-01 06:12:00,
2013-09-01 02:15:00,72.8,70.7,29.79,SSW,205,0.0,0.0,93,0.00,,BKN047,0.00,VWS V14.01,2013-09-01 06:15:00,
2013-09-01 02:17:00,72.8,70.7,29.79,SSW,205,0.0,0.0,93,0.00,,CLR,0.00,VWS V14.01,2013-09-01 06:17:00,
2013-09-01 02:22:00,72.7,70.6,29.79,SSW,205,0.0,0.0,93,0.00,,CLR,0.00,VWS V14.01,2013-09-01 06:22:00,
2013-09-01 02:27:00,72.7,70.6,29.79,SSW,205,0.0,0.0,93,0.00,,CLR,0.00,VWS V14.01,2013-09-01 06:27:00,
2013-09-01 02:30:00,72.5,70.4,29.79,SSW,205,0.0,0.0,93,0.00,,BKN047,0.00,VWS V14.01,2013-09-01 06:30:00,
2013-09-01 02:32:00,72.5,70.4,29.79,SSW,205,0.0,0.0,93,0.00,,CLR,0.00,VWS V14.01,2013-09-01 06:32:00,
2013-09-01 02:37:00,72.5,70.4,29.79,SSW,205,0.0,0.0,93,0.00,,CLR,0.00,VWS V14.01,2013-09-01 06:37:00,
2013-09-01 02:42:00,72.3,70.2,29.79,SSW,205,0.0,0.0,93,0.00,,CLR,0.00,VWS V14.01,2013-09-01 06:42:00,
2013-09-01 02:45:00,72.3,70.2,29.79,SSW,205,0.0,0.0,93,0.00,,BKN047,0.00,VWS V14.01,2013-09-01 06:45:00,
2013-09-01 02:47:00,72.3,70.2,29.79,SSW,205,0.0,0.0,93,0.00,,CLR,0.00,VWS V14.01,2013-09-01 06:47:00,
2013-09-01 02:52:00,72.1,70.0,29.79,SSW,205,0.0,0.0,93,0.00,,CLR,0.00,VWS V14.01,2013-09-01 06:52:00,
2013-09-01 02:57:00,72.0,69.9,29.79,SSW,205,0.0,0.0,93,0.00,,CLR,0.00,VWS V14.01,2013-09-01 06:57:00,
2013-09-01 03:00:00,72.0,69.9,29.78,SSW,205,0.0,0.0,93,0.00,,BKN047,0.00,VWS V14.01,2013-09-01 07:00:00,
2013-09-01 03:02:00,72.0,69.9,29.78,SSW,205,0.0,0.0,93,0.00,,,0.00,VWS V14.01,2013-09-01 07:02:00,
2013-09-01 03:07:00,71.8,69.7,29.78,SSW,205,0.0,0.0,93,0.00,,,0.00,VWS V14.01,2013-09-01 07:07:00,
2013-09-01 03:12:00,71.8,69.7,29.78,SSW,205,0.0,0.0,93,0.00,,,0.00,VWS V14.01,2013-09-01 07:12:00,
2013-09-01 03:15:00,71.8,70.0,29.78,SSW,205,0.0,0.0,94,0.00,,BKN047,0.00,VWS V14.01,2013-09-01 07:15:00,
2013-09-01 03:17:00,71.8,70.0,29.78,SSW,205,0.0,0.0,94,0.00,,,0.00,VWS V14.01,2013-09-01 07:17:00,
2013-09-01 03:22:00,71.8,70.0,29.78,SSW,205,0.0,0.0,94,0.00,,,0.00,VWS V14.01,2013-09-01 07:22:00,
2013-09-01 03:27:00,71.8,70.0,29.78,SSW,205,0.0,0.0,94,0.00,,,0.00,VWS V14.01,2013-09-01 07:27:00,
2013-09-01 03:30:00,71.6,69.8,29.78,SSW,205,0.0,0.0,94,0.00,,BKN047,0.00,VWS V14.01,2013-09-01 07:30:00,
2013-09-01 03:32:00,71.8,70.0,29.78,SSW,205,0.0,0.0,94,0.00,,,0.00,VWS V14.01,2013-09-01 07:32:00,
2013-09-01 03:37:00,71.6,69.8,29.78,SSW,205,0.0,0.0,94,0.00,,,0.00,VWS V14.01,2013-09-01 07:37:00,
2013-09-01 03:42:00,71.6,69.8,29.78,SSW,205,0.0,0.0,94,0.00,,,0.00,VWS V14.01,2013-09-01 07:42:00,
2013-09-01 03:45:00,71.6,69.8,29.77,SSW,205,0.0,0.0,94,0.00,,BKN047,0.00,VWS V14.01,2013-09-01 07:45:00,
2013-09-01 03:47:00,71.5,69.7,29.77,SSW,205,0.0,0.0,94,0.00,,,0.00,VWS V14.01,2013-09-01 07:47:00,
2013-09-01 03:52:00,71.5,69.7,29.77,SSW,205,0.0,0.0,94,0.00,,,0.00,VWS V14.01,2013-09-01 07:52:00,
2013-09-01 03:57:00,71.3,69.5,29.77,SSW,205,0.0,0.0,94,0.00,,,0.00,VWS V14.01,2013-09-01 07:57:00,
2013-09-01 04:00:00,71.3,69.5,29.77,SSW,205,0.0,0.0,94,0.00,,BKN047,0.00,VWS V14.01,2013-09-01 08:00:00,
2013-09-01 04:02:00,71.3,69.5,29.77,SSW,205,0.0,0.0,94,0.00,,,0.00,VWS V14.01,2013-09-01 08:02:00,
2013-09-01 04:07:00,71.1,69.3,29.77,SSW,205,0.0,0.0,94,0.00,,,0.00,VWS V14.01,2013-09-01 08:07:00,
2013-09-01 04:12:00,71.1,69.3,29.77,SSW,205,0.0,0.0,94,0.00,,,0.00,VWS V14.01,2013-09-01 08:12:00,
2013-09-01 04:15:00,71.1,69.3,29.77,SSW,205,0.0,0.0,94,0.00,,BKN047,0.00,VWS V14.01,2013-09-01 08:15:00,
2013-09-01 04:17:00,71.1,69.3,29.77,SSW,205,0.0,0.0,94,0.00,,,0.00,VWS V14.01,2013-09-01 08:17:00,
2013-09-01 04:22:00,71.1,69.3,29.77,SSW,205,0.0,0.0,94,0.00,,,0.00,VWS V14.01,2013-09-01 08:22:00,
2013-09-01 04:27:00,71.1,69.6,29.77,SSW,205,0.0,0.0,95,0.00,,,0.00,VWS V14.01,2013-09-01 08:27:00,
2013-09-01 04:30:00,71.1,69.6,29.77,SSW,205,0.0,0.0,95,0.00,,BKN047,0.00,VWS V14.01,2013-09-01 08:30:00,
2013-09-01 04:32:00,71.1,69.6,29.77,SSW,205,0.0,0.0,95,0.00,,,0.00,VWS V14.01,2013-09-01 08:32:00,
2013-09-01 04:37:00,71.3,69.8,29.77,SSW,203,0.0,0.0,95,0.00,,,0.00,VWS V14.01,2013-09-01 08:37:00,
2013-09-01 04:42:00,71.3,69.8,29.77,SSW,205,0.0,2.0,95,0.00,,,0.00,VWS V14.01,2013-09-01 08:42:00,
2013-09-01 04:45:00,71.3,69.8,29.77,SSW,205,0.0,2.0,95,0.00,,BKN047,0.00,VWS V14.01,2013-09-01 08:45:00,
2013-09-01 04:47:00,71.3,69.8,29.77,SSW,203,0.0,0.0,95,0.00,,,0.00,VWS V14.01,2013-09-01 08:47:00,
2013-09-01 04:52:00,71.3,69.8,29.77,SSW,205,0.0,0.0,95,0.00,,,0.00,VWS V14.01,2013-09-01 08:52:00,
2013-09-01 04:57:00,71.3,69.8,29.77,SSW,205,0.0,0.0,95,0.00,,,0.00,VWS V14.01,2013-09-01 08:57:00,
2013-09-01 05:00:00,71.3,69.8,29.77,SSW,205,0.0,0.0,95,0.00,,BKN047,0.00,VWS V14.01,2013-09-01 09:00:00,
2013-09-01 05:02:00,71.3,69.8,29.77,SSW,203,0.0,0.0,95,0.00,,,0.00,VWS V14.01,2013-09-01 09:02:00,
2013-09-01 05:07:00,71.3,69.8,29.77,SSW,205,0.0,0.0,95,0.00,,,0.00,VWS V14.01,2013-09-01 09:07:00,
2013-09-01 05:12:00,71.1,69.6,29.77,SSW,205,0.0,0.0,95,0.00,,,0.00,VWS V14.01,2013-09-01 09:12:00,
2013-09-01 05:15:00,71.3,69.8,29.77,SSW,203,0.0,0.0,95,0.00,,BKN047,0.00,VWS V14.01,2013-09-01 09:15:00,
2013-09-01 05:17:00,71.3,69.8,29.77,SSW,205,0.0,0.0,95,0.00,,,0.00,VWS V14.01,2013-09-01 09:17:00,
2013-09-01 05:22:00,71.3,69.8,29.77,SSW,205,0.0,1.0,95,0.00,,,0.00,VWS V14.01,2013-09-01 09:22:00,
2013-09-01 05:27:00,71.1,69.6,29.77,SSW,205,0.0,1.0,95,0.00,,,0.00,VWS V14.01,2013-09-01 09:27:00,
2013-09-01 05:30:00,71.1,69.6,29.77,SSW,205,0.0,1.0,95,0.00,,BKN047,0.00,VWS V14.01,2013-09-01 09:30:00,
2013-09-01 05:32:00,70.9,69.4,29.77,SSW,205,0.0,2.0,95,0.00,,,0.00,VWS V14.01,2013-09-01 09:32:00,
2013-09-01 05:37:00,70.8,69.3,29.77,SSW,205,0.0,2.0,95,0.00,,,0.00,VWS V14.01,2013-09-01 09:37:00,
2013-09-01 05:42:00,70.8,69.3,29.77,SSW,205,0.0,0.0,95,0.00,,,0.00,VWS V14.01,2013-09-01 09:42:00,
2013-09-01 05:45:00,70.8,69.3,29.77,SSW,205,0.0,0.0,95,0.00,,BKN047,0.00,VWS V14.01,2013-09-01 09:45:00,
2013-09-01 05:47:00,70.6,69.1,29.77,SSW,205,0.0,0.0,95,0.00,,,0.00,VWS V14.01,2013-09-01 09:47:00,
2013-09-01 05:52:00,70.6,68.8,29.77,SSW,205,0.0,0.0,94,0.00,,,0.00,VWS V14.01,2013-09-01 09:52:00,
2013-09-01 05:57:00,70.4,68.6,29.77,SSW,205,0.0,0.0,94,0.00,,,0.00,VWS V14.01,2013-09-01 09:57:00,
2013-09-01 06:00:00,70.4,68.6,29.78,SSW,205,0.0,0.0,94,0.00,,BKN047,0.00,VWS V14.01,2013-09-01 10:00:00,
2013-09-01 06:02:00,70.3,68.5,29.78,SSW,205,0.0,0.0,94,0.00,,CLR,0.00,VWS V14.01,2013-09-01 10:02:00,
2013-09-01 06:07:00,70.3,68.5,29.78,SSW,205,0.0,0.0,94,0.00,,CLR,0.00,VWS V14.01,2013-09-01 10:07:00,
2013-09-01 06:12:00,70.3,68.5,29.78,SSW,205,0.0,0.0,94,0.00,,CLR,0.00,VWS V14.01,2013-09-01 10:12:00,
2013-09-01 06:15:00,70.3,68.5,29.78,SSW,205,0.0,0.0,94,0.00,,BKN047,0.00,VWS V14.01,2013-09-01 10:15:00,
2013-09-01 06:17:00,70.1,68.3,29.78,SSW,205,0.0,0.0,94,0.00,,CLR,0.00,VWS V14.01,2013-09-01 10:17:00,
2013-09-01 06:22:00,70.1,68.3,29.78,SSW,205,0.0,0.0,94,0.00,,CLR,0.00,VWS V14.01,2013-09-01 10:22:00,
2013-09-01 06:27:00,70.1,68.0,29.78,SSW,205,0.0,0.0,93,0.00,,CLR,0.00,VWS V14.01,2013-09-01 10:27:00,
2013-09-01 06:30:00,69.9,67.8,29.78,SSW,205,0.0,0.0,93,0.00,,BKN047,0.00,VWS V14.01,2013-09-01 10:30:00,
2013-09-01 06:32:00,69.9,67.8,29.78,SSW,205,0.0,0.0,93,0.00,,CLR,0.00,VWS V14.01,2013-09-01 10:32:00,
2013-09-01 06:37:00,69.9,67.8,29.78,SSW,205,0.0,0.0,93,0.00,,CLR,0.00,VWS V14.01,2013-09-01 10:37:00,
2013-09-01 06:42:00,69.8,67.7,29.78,SSW,205,0.0,0.0,93,0.00,,CLR,0.00,VWS V14.01,2013-09-01 10:42:00,
2013-09-01 06:45:00,69.8,67.7,29.79,SSW,205,0.0,0.0,93,0.00,,BKN047,0.00,VWS V14.01,2013-09-01 10:45:00,
2013-09-01 06:47:00,69.8,67.7,29.79,SSW,205,0.0,0.0,93,0.00,,CLR,0.00,VWS V14.01,2013-09-01 10:47:00,
2013-09-01 06:52:00,69.8,67.7,29.79,SSW,205,0.0,0.0,93,0.00,,CLR,0.00,VWS V14.01,2013-09-01 10:52:00,
2013-09-01 06:57:00,69.8,67.7,29.79,SSW,205,0.0,0.0,93,0.00,,CLR,0.00,VWS V14.01,2013-09-01 10:57:00,
2013-09-01 07:00:00,69.8,67.7,29.79,SSW,205,0.0,0.0,93,0.00,,BKN047,0.00,VWS V14.01,2013-09-01 11:00:00,
2013-09-01 07:02:00,69.6,67.5,29.79,SSW,205,0.0,0.0,93,0.00,,CLR,0.00,VWS V14.01,2013-09-01 11:02:00,
2013-09-01 07:07:00,69.6,67.5,29.79,SSW,205,0.0,0.0,93,0.00,,CLR,0.00,VWS V14.01,2013-09-01 11:07:00,
2013-09-01 07:12:00,69.6,67.5,29.79,SSW,205,0.0,0.0,93,0.00,,CLR,0.00,VWS V14.01,2013-09-01 11:12:00,
2013-09-01 07:15:00,69.6,67.5,29.80,SSW,205,0.0,0.0,93,0.00,,BKN047,0.00,VWS V14.01,2013-09-01 11:15:00,
2013-09-01 07:17:00,69.6,67.5,29.80,SSW,205,0.0,0.0,93,0.00,,CLR,0.00,VWS V14.01,2013-09-01 11:17:00,
2013-09-01 07:22:00,69.4,67.3,29.80,SSW,205,0.0,1.0,93,0.00,,CLR,0.00,VWS V14.01,2013-09-01 11:22:00,
2013-09-01 07:27:00,69.4,67.3,29.80,SSW,205,0.0,1.0,93,0.00,,CLR,0.00,VWS V14.01,2013-09-01 11:27:00,
2013-09-01 07:30:00,69.4,67.3,29.81,SSW,205,0.0,0.0,93,0.00,,BKN047,0.00,VWS V14.01,2013-09-01 11:30:00,
2013-09-01 07:32:00,69.4,67.3,29.81,SSW,205,0.0,0.0,93,0.00,,CLR,0.00,VWS V14.01,2013-09-01 11:32:00,
2013-09-01 07:37:00,69.4,67.0,29.81,SSW,205,0.0,0.0,92,0.00,,CLR,0.00,VWS V14.01,2013-09-01 11:37:00,
2013-09-01 07:42:00,69.4,67.0,29.81,SSW,205,0.0,0.0,92,0.00,,CLR,0.00,VWS V14.01,2013-09-01 11:42:00,
2013-09-01 07:45:00,69.4,67.0,29.81,SSW,205,0.0,0.0,92,0.00,,BKN047,0.00,VWS V14.01,2013-09-01 11:45:00,
2013-09-01 07:47:00,69.4,67.0,29.81,SSW,205,0.0,0.0,92,0.00,,CLR,0.00,VWS V14.01,2013-09-01 11:47:00,
2013-09-01 07:52:00,69.4,67.0,29.81,SSW,205,0.0,0.0,92,0.00,,CLR,0.00,VWS V14.01,2013-09-01 11:52:00,
2013-09-01 07:57:00,69.6,67.2,29.81,SSW,205,0.0,0.0,92,0.00,,CLR,0.00,VWS V14.01,2013-09-01 11:57:00,
2013-09-01 08:00:00,69.6,67.2,29.81,SSW,205,0.0,2.0,92,0.00,,BKN047,0.00,VWS V14.01,2013-09-01 12:00:00,
2013-09-01 08:02:00,69.8,67.4,29.81,SSW,205,4.0,4.0,92,0.00,,CLR,0.00,VWS V14.01,2013-09-01 12:02:00,
2013-09-01 08:07:00,69.9,67.5,29.81,SSW,203,2.0,6.0,92,0.00,,CLR,0.00,VWS V14.01,2013-09-01 12:07:00,
2013-09-01 08:12:00,70.1,67.4,29.81,SSW,213,5.0,6.0,91,0.00,,CLR,0.00,VWS V14.01,2013-09-01 12:12:00,
2013-09-01 08:15:00,70.1,67.4,29.80,SW,227,0.0,6.0,91,0.00,,BKN047,0.00,VWS V14.01,2013-09-01 12:15:00,
2013-09-01 08:17:00,70.3,67.6,29.80,SW,215,4.0,6.0,91,0.00,,CLR,0.00,VWS V14.01,2013-09-01 12:17:00,
2013-09-01 08:22:00,70.4,67.3,29.80,SW,215,0.0,5.0,90,0.00,,CLR,0.00,VWS V14.01,2013-09-01 12:22:00,
2013-09-01 08:27:00,70.4,67.3,29.80,SSW,212,0.0,5.0,90,0.00,,CLR,0.00,VWS V14.01,2013-09-01 12:27:00,
2013-09-01 08:30:00,70.6,67.2,29.81,SW,229,1.0,5.0,89,0.00,,BKN047,0.00,VWS V14.01,2013-09-01 12:30:00,
2013-09-01 08:32:00,70.6,67.2,29.81,SW,229,0.0,5.0,89,0.00,,CLR,0.00,VWS V14.01,2013-09-01 12:32:00,
2013-09-01 08:37:00,70.8,67.1,29.81,SW,229,1.0,3.0,88,0.00,,CLR,0.00,VWS V14.01,2013-09-01 12:37:00,
2013-09-01 08:42:00,70.9,66.8,29.81,SW,229,0.0,3.0,87,0.00,,CLR,0.00,VWS V14.01,2013-09-01 12:42:00,
2013-09-01 08:45:00,70.9,66.8,29.81,SW,229,0.0,3.0,87,0.00,,BKN047,0.00,VWS V14.01,2013-09-01 12:45:00,
2013-09-01 08:47:00,71.1,67.0,29.81,SW,229,0.0,3.0,87,0.00,,CLR,0.00,VWS V14.01,2013-09-01 12:47:00,
2013-09-01 08:52:00,71.3,67.2,29.81,SW,229,0.0,1.0,87,0.00,,CLR,0.00,VWS V14.01,2013-09-01 12:52:00,
2013-09-01 08:57:00,71.6,67.2,29.81,SW,227,0.0,0.0,86,0.00,,CLR,0.00,VWS V14.01,2013-09-01 12:57:00,
2013-09-01 09:00:00,71.6,66.9,29.81,SW,226,3.0,3.0,85,0.00,,BKN047,0.00,VWS V14.01,2013-09-01 13:00:00,
2013-09-01 09:02:00,71.8,66.7,29.81,SW,226,0.0,3.0,84,0.00,,CLR,0.00,VWS V14.01,2013-09-01 13:02:00,
2013-09-01 09:07:00,72.0,66.6,29.81,SSW,213,2.0,6.0,83,0.00,,CLR,0.00,VWS V14.01,2013-09-01 13:07:00,
2013-09-01 09:12:00,72.1,66.3,29.81,SSW,212,2.0,6.0,82,0.00,,CLR,0.00,VWS V14.01,2013-09-01 13:12:00,
2013-09-01 09:15:00,72.3,66.5,29.81,SW,227,0.0,5.0,82,0.00,,BKN047,0.00,VWS V14.01,2013-09-01 13:15:00,
2013-09-01 09:17:00,72.5,66.3,29.81,SW,227,0.0,5.0,81,0.00,,CLR,0.00,VWS V14.01,2013-09-01 13:17:00,
2013-09-01 09:22:00,72.7,66.5,29.81,SW,216,0.0,6.0,81,0.00,,CLR,0.00,VWS V14.01,2013-09-01 13:22:00,
2013-09-01 09:27:00,72.8,66.6,29.81,SSW,205,6.0,6.0,81,0.00,,CLR,0.00,VWS V14.01,2013-09-01 13:27:00,
2013-09-01 09:30:00,72.8,66.3,29.81,SSW,213,0.0,7.0,80,0.00,,BKN047,0.00,VWS V14.01,2013-09-01 13:30:00,
2013-09-01 09:32:00,72.8,66.3,29.81,SW,224,7.0,7.0,80,0.00,,CLR,0.00,VWS V14.01,2013-09-01 13:32:00,
2013-09-01 09:37:00,73.0,66.5,29.81,SW,224,0.0,8.0,80,0.00,,CLR,0.00,VWS V14.01,2013-09-01 13:37:00,
2013-09-01 09:42:00,73.2,66.3,29.81,WSW,256,3.0,5.0,79,0.00,,CLR,0.00,VWS V14.01,2013-09-01 13:42:00,
2013-09-01 09:45:00,73.2,66.3,29.81,WSW,256,0.0,5.0,79,0.00,,BKN047,0.00,VWS V14.01,2013-09-01 13:45:00,
2013-09-01 09:47:00,73.3,66.0,29.81,SSW,206,2.0,7.0,78,0.00,,CLR,0.00,VWS V14.01,2013-09-01 13:47:00,
2013-09-01 09:52:00,73.7,66.4,29.81,SW,224,0.0,7.0,78,0.00,,CLR,0.00,VWS V14.01,2013-09-01 13:52:00,
2013-09-01 09:57:00,73.9,66.2,29.81,WSW,241,0.0,5.0,77,0.00,,CLR,0.00,VWS V14.01,2013-09-01 13:57:00,
2013-09-01 10:00:00,74.0,66.0,29.80,SW,232,0.0,5.0,76,0.00,,BKN047,0.00,VWS V14.01,2013-09-01 14:00:00,
2013-09-01 10:02:00,74.2,66.5,29.80,SW,232,0.0,5.0,77,0.00,,CLR,0.00,VWS V14.01,2013-09-01 14:02:00,
2013-09-01 10:07:00,74.4,66.7,29.80,SW,216,0.0,7.0,77,0.00,,CLR,0.00,VWS V14.01,2013-09-01 14:07:00,
2013-09-01 10:12:00,74.4,67.1,29.80,WSW,248,0.0,7.0,78,0.00,,CLR,0.00,VWS V14.01,2013-09-01 14:12:00,
2013-09-01 10:15:00,74.4,66.7,29.80,SW,234,0.0,7.0,77,0.00,,BKN047,0.00,VWS V14.01,2013-09-01 14:15:00,
2013-09-01 10:17:00,74.2,65.8,29.80,SSW,213,4.0,7.0,75,0.00,,CLR,0.00,VWS V14.01,2013-09-01 14:17:00,
2013-09-01 10:22:00,74.4,67.1,29.80,SSW,209,1.0,7.0,78,0.00,,CLR,0.00,VWS V14.01,2013-09-01 14:22:00,
2013-09-01 10:27:00,74.4,67.1,29.80,SSW,209,0.0,5.0,78,0.00,,CLR,0.00,VWS V14.01,2013-09-01 14:27:00,
2013-09-01 10:30:00,74.4,67.1,29.80,SSW,209,0.0,5.0,78,0.00,,BKN047,0.00,VWS V14.01,2013-09-01 14:30:00,
2013-09-01 10:32:00,74.6,67.7,29.80,SSW,209,0.0,1.0,79,0.00,,CLR,0.00,VWS V14.01,2013-09-01 14:32:00,
2013-09-01 10:37:00,74.7,67.4,29.80,SSE,165,0.0,5.0,78,0.00,,CLR,0.00,VWS V14.01,2013-09-01 14:37:00,
2013-09-01 10:42:00,74.7,67.4,29.80,SSE,165,0.0,5.0,78,0.00,,CLR,0.00,VWS V14.01,2013-09-01 14:42:00,
2013-09-01 10:45:00,74.9,67.6,29.81,SSE,165,0.0,3.0,78,0.00,,BKN047,0.00,VWS V14.01,2013-09-01 14:45:00,
2013-09-01 10:47:00,75.1,67.0,29.81,SSE,161,0.0,3.0,76,0.00,,CLR,0.00,VWS V14.01,2013-09-01 14:47:00,
2013-09-01 10:52:00,75.6,67.9,29.81,SW,222,2.0,6.0,77,0.00,,CLR,0.00,VWS V14.01,2013-09-01 14:52:00,
2013-09-01 10:57:00,76.3,68.2,29.81,SSW,203,1.0,6.0,76,0.00,,CLR,0.00,VWS V14.01,2013-09-01 14:57:00,
2013-09-01 11:00:00,76.5,67.6,29.80,SSW,213,0.0,6.0,74,0.00,,BKN047,0.00,VWS V14.01,2013-09-01 15:00:00,
2013-09-01 11:02:00,76.8,68.3,29.80,SSE,151,0.0,5.0,75,0.00,,CLR,0.00,VWS V14.01,2013-09-01 15:02:00,
2013-09-01 11:07:00,77.7,67.6,29.80,SSE,152,1.0,3.0,71,0.00,,CLR,0.00,VWS V14.01,2013-09-01 15:07:00,
2013-09-01 11:12:00,78.6,68.4,29.80,SSE,152,0.0,3.0,71,0.00,,CLR,0.00,VWS V14.01,2013-09-01 15:12:00,
2013-09-01 11:15:00,78.8,68.2,29.81,SSW,212,0.0,6.0,70,0.00,,BKN047,0.00,VWS V14.01,2013-09-01 15:15:00,
2013-09-01 11:17:00,78.6,67.6,29.81,WSW,253,0.0,6.0,69,0.00,,CLR,0.00,VWS V14.01,2013-09-01 15:17:00,
2013-09-01 11:22:00,78.8,67.4,29.81,SW,219,0.0,6.0,68,0.00,,CLR,0.00,VWS V14.01,2013-09-01 15:22:00,
2013-09-01 11:27:00,79.2,68.2,29.81,SW,217,3.0,6.0,69,0.00,,CLR,0.00,VWS V14.01,2013-09-01 15:27:00,
2013-09-01 11:30:00,79.4,67.9,29.80,WSW,237,0.0,6.0,68,0.00,,BKN047,0.00,VWS V14.01,2013-09-01 15:30:00,
2013-09-01 11:32:00,79.4,67.9,29.80,SW,217,6.0,7.0,68,0.00,,CLR,0.00,VWS V14.01,2013-09-01 15:32:00,
2013-09-01 11:37:00,79.2,68.2,29.80,WSW,247,0.0,7.0,69,0.00,,CLR,0.00,VWS V14.01,2013-09-01 15:37:00,
2013-09-01 11:42:00,79.0,68.0,29.80,WSW,248,0.0,7.0,69,0.00,,CLR,0.00,VWS V14.01,2013-09-01 15:42:00,
2013-09-01 11:45:00,79.0,68.4,29.80,WSW,248,0.0,7.0,70,0.00,,BKN047,0.00,VWS V14.01,2013-09-01 15:45:00,
2013-09-01 11:47:00,78.8,68.2,29.80,SW,224,1.0,6.0,70,0.00,,CLR,0.00,VWS V14.01,2013-09-01 15:47:00,
2013-09-01 11:52:00,78.8,67.8,29.80,SSW,210,0.0,7.0,69,0.00,,CLR,0.00,VWS V14.01,2013-09-01 15:52:00,
2013-09-01 11:57:00,79.2,68.2,29.80,WSW,258,3.0,7.0,69,0.00,,CLR,0.00,VWS V14.01,2013-09-01 15:57:00,
2013-09-01 12:00:00,79.2,68.2,29.80,WSW,237,5.0,6.0,69,0.00,,BKN047,0.00,VWS V14.01,2013-09-01 16:00:00,
2013-09-01 12:02:00,79.2,69.0,29.80,South,179,0.0,6.0,71,0.00,,CLR,0.00,VWS V14.01,2013-09-01 16:02:00,
2013-09-01 12:07:00,78.8,67.8,29.80,SW,229,5.0,7.0,69,0.00,,CLR,0.00,VWS V14.01,2013-09-01 16:07:00,
2013-09-01 12:12:00,79.2,69.4,29.80,SSW,202,6.0,7.0,72,0.00,,CLR,0.00,VWS V14.01,2013-09-01 16:12:00,
2013-09-01 12:15:00,79.4,68.8,29.80,SW,223,6.0,6.0,70,0.00,,BKN047,0.00,VWS V14.01,2013-09-01 16:15:00,
2013-09-01 12:17:00,79.8,70.0,29.80,SW,224,0.0,7.0,72,0.00,,CLR,0.00,VWS V14.01,2013-09-01 16:17:00,
2013-09-01 12:22:00,80.1,69.4,29.80,SSW,199,0.0,7.0,70,0.00,,CLR,0.00,VWS V14.01,2013-09-01 16:22:00,
2013-09-01 12:27:00,80.3,69.2,29.80,South,188,0.0,6.0,69,0.00,,CLR,0.00,VWS V14.01,2013-09-01 16:27:00,
2013-09-01 12:30:00,80.5,69.8,29.79,SSW,210,0.0,6.0,70,0.00,,BKN047,0.00,VWS V14.01,2013-09-01 16:30:00,
2013-09-01 12:32:00,80.7,69.2,29.79,SW,215,2.0,5.0,68,0.00,,CLR,0.00,VWS V14.01,2013-09-01 16:32:00,
2013-09-01 12:38:00,80.9,68.9,29.79,SSE,161,1.0,5.0,67,0.00,,CLR,0.00,VWS V14.01,2013-09-01 16:38:00,
2013-09-01 12:43:00,80.7,69.6,29.79,South,182,0.0,3.0,69,0.00,,CLR,0.00,VWS V14.01,2013-09-01 16:43:00,
2013-09-01 12:45:00,80.9,69.8,29.79,SSW,198,1.0,3.0,69,0.00,,BKN047,0.00,VWS V14.01,2013-09-01 16:45:00,
2013-09-01 12:48:00,81.2,70.1,29.79,South,188,6.0,8.0,69,0.00,,BKN021,0.00,VWS V14.01,2013-09-01 16:48:00,
2013-09-01 12:53:00,81.6,70.0,29.79,South,185,0.0,8.0,68,0.00,,BKN021,0.00,VWS V14.01,2013-09-01 16:53:00,
2013-09-01 12:58:00,82.4,70.3,29.79,WSW,248,0.0,6.0,67,0.00,,BKN021,0.00,VWS V14.01,2013-09-01 16:58:00,
2013-09-01 13:00:00,82.6,69.2,29.79,SW,222,1.0,6.0,64,0.00,,BKN047,0.00,VWS V14.01,2013-09-01 17:00:00,
2013-09-01 13:02:00,83.0,70.5,29.79,South,178,0.0,6.0,66,0.00,,OVC023,0.00,VWS V14.01,2013-09-01 17:02:00,
2013-09-01 13:07:00,83.2,70.7,29.79,SW,217,0.0,7.0,66,0.00,,OVC023,0.00,VWS V14.01,2013-09-01 17:07:00,
2013-09-01 13:12:00,82.8,68.5,29.79,WSW,239,2.0,11.0,62,0.00,,OVC023,0.00,VWS V14.01,2013-09-01 17:12:00,
2013-09-01 13:15:00,83.0,70.5,29.79,South,176,0.0,11.0,66,0.00,,BKN047,0.00,VWS V14.01,2013-09-01 17:15:00,
2013-09-01 13:18:00,83.0,70.0,29.79,SSW,199,0.0,11.0,65,0.00,,OVC023,0.00,VWS V14.01,2013-09-01 17:18:00,
2013-09-01 13:22:00,83.2,69.8,29.79,SW,229,0.0,7.0,64,0.00,,OVC023,0.00,VWS V14.01,2013-09-01 17:22:00,
2013-09-01 13:28:00,82.8,70.3,29.79,SSW,199,0.0,6.0,66,0.00,,OVC023,0.00,VWS V14.01,2013-09-01 17:28:00,
2013-09-01 13:30:00,82.8,70.7,29.79,SSW,209,1.0,6.0,67,0.00,,BKN047,0.00,VWS V14.01,2013-09-01 17:30:00,
2013-09-01 13:33:00,82.6,69.7,29.79,SW,219,6.0,8.0,65,0.00,,OVC023,0.00,VWS V14.01,2013-09-01 17:33:00,
2013-09-01 13:38:00,82.2,70.6,29.79,SSW,198,0.0,8.0,68,0.00,,OVC023,0.00,VWS V14.01,2013-09-01 17:38:00,
2013-09-01 13:43:00,82.2,70.6,29.79,SSE,160,0.0,6.0,68,0.00,,OVC023,0.00,VWS V14.01,2013-09-01 17:43:00,
2013-09-01 13:45:00,82.2,70.2,29.79,SSW,205,0.0,6.0,67,0.00,,BKN047,0.00,VWS V14.01,2013-09-01 17:45:00,
2013-09-01 13:48:00,82.4,69.9,29.79,SSW,200,0.0,8.0,66,0.00,,SCT025,0.00,VWS V14.01,2013-09-01 17:48:00,
2013-09-01 13:53:00,82.6,70.1,29.79,South,179,0.0,8.0,66,0.00,,SCT025,0.00,VWS V14.01,2013-09-01 17:53:00,
2013-09-01 13:58:00,83.0,70.0,29.79,South,186,0.0,1.0,65,0.00,,SCT025,0.00,VWS V14.01,2013-09-01 17:58:00,
2013-09-01 14:00:00,83.2,69.8,29.79,SW,234,3.0,3.0,64,0.00,,BKN047,0.00,VWS V14.01,2013-09-01 18:00:00,
2013-09-01 14:03:00,83.2,69.8,29.79,SSW,210,6.0,6.0,64,0.00,,SCT025,0.00,VWS V14.01,2013-09-01 18:03:00,
2013-09-01 14:08:00,82.6,70.1,29.79,SSW,208,0.0,9.0,66,0.00,,SCT025,0.00,VWS V14.01,2013-09-01 18:08:00,
2013-09-01 14:13:00,82.4,69.5,29.79,South,176,0.0,9.0,65,0.00,,SCT025,0.00,VWS V14.01,2013-09-01 18:13:00,
2013-09-01 14:15:00,82.4,69.9,29.79,SSW,199,0.0,9.0,66,0.00,,BKN047,0.00,VWS V14.01,2013-09-01 18:15:00,
2013-09-01 14:18:00,82.4,70.3,29.79,SW,215,7.0,9.0,67,0.00,,SCT025,0.00,VWS V14.01,2013-09-01 18:18:00,
2013-09-01 14:23:00,82.4,69.0,29.79,SW,215,0.0,9.0,64,0.00,,SCT025,0.00,VWS V14.01,2013-09-01 18:23:00,
2013-09-01 14:28:00,82.8,69.8,29.79,SW,217,6.0,9.0,65,0.00,,SCT025,0.00,VWS V14.01,2013-09-01 18:28:00,
2013-09-01 14:30:00,83.0,69.6,29.79,South,185,0.0,8.0,64,0.00,,BKN047,0.00,VWS V14.01,2013-09-01 18:30:00,
2013-09-01 14:33:00,83.0,69.6,29.79,West,271,0.0,10.0,64,0.00,,SCT025,0.00,VWS V14.01,2013-09-01 18:33:00,
2013-09-01 14:38:00,83.4,69.5,29.79,South,178,0.0,10.0,63,0.00,,SCT025,0.00,VWS V14.01,2013-09-01 18:38:00,
2013-09-01 14:43:00,83.8,69.9,29.79,SW,219,0.0,7.0,63,0.00,,SCT025,0.00,VWS V14.01,2013-09-01 18:43:00,
2013-09-01 14:45:00,84.0,70.5,29.78,SSE,155,0.0,7.0,64,0.00,,BKN047,0.00,VWS V14.01,2013-09-01 18:45:00,
2013-09-01 14:48:00,84.0,69.1,29.78,SW,232,0.0,8.0,61,0.00,,SCT025,0.00,VWS V14.01,2013-09-01 18:48:00,
2013-09-01 14:53:00,84.0,69.1,29.78,WSW,257,1.0,8.0,61,0.00,,SCT025,0.00,VWS V14.01,2013-09-01 18:53:00,
2013-09-01 14:58:00,84.1,69.7,29.78,SSW,192,0.0,7.0,62,0.00,,SCT025,0.00,VWS V14.01,2013-09-01 18:58:00,
2013-09-01 15:00:00,84.0,70.1,29.77,SW,215,1.0,4.0,63,0.00,,BKN047,0.00,VWS V14.01,2013-09-01 19:00:00,
2013-09-01 15:03:00,84.0,69.6,29.77,WSW,243,0.0,8.0,62,0.00,,BKN030,0.00,VWS V14.01,2013-09-01 19:03:00,
2013-09-01 15:08:00,83.8,69.4,29.77,SW,222,4.0,10.0,62,0.00,,BKN030,0.00,VWS V14.01,2013-09-01 19:08:00,
2013-09-01 15:13:00,84.0,68.6,29.77,SSW,213,0.0,7.0,60,0.00,,BKN030,0.00,VWS V14.01,2013-09-01 19:13:00,
2013-09-01 15:15:00,84.0,68.6,29.77,West,272,5.0,7.0,60,0.00,,BKN047,0.00,VWS V14.01,2013-09-01 19:15:00,
2013-09-01 15:18:00,83.8,69.9,29.77,SW,227,0.0,7.0,63,0.00,,BKN030,0.00,VWS V14.01,2013-09-01 19:18:00,
2013-09-01 15:23:00,83.8,70.3,29.77,South,172,0.0,5.0,64,0.00,,BKN030,0.00,VWS V14.01,2013-09-01 19:23:00,
2013-09-01 15:28:00,83.8,70.3,29.77,South,186,0.0,1.0,64,0.00,,BKN030,0.00,VWS V14.01,2013-09-01 19:28:00,
2013-09-01 15:30:00,83.8,70.3,29.77,South,186,0.0,1.0,64,0.00,,BKN047,0.00,VWS V14.01,2013-09-01 19:30:00,
2013-09-01 15:33:00,83.8,70.3,29.77,South,186,0.0,1.0,64,0.00,,BKN030,0.00,VWS V14.01,2013-09-01 19:33:00,
2013-09-01 15:38:00,83.6,70.1,29.77,SSW,213,0.0,5.0,64,0.00,,BKN030,0.00,VWS V14.01,2013-09-01 19:38:00,
2013-09-01 15:43:00,83.8,70.3,29.77,SSE,155,0.0,6.0,64,0.00,,BKN030,0.00,VWS V14.01,2013-09-01 19:43:00,
2013-09-01 15:45:00,83.6,69.7,29.76,SSE,155,0.0,6.0,63,0.00,,BKN047,0.00,VWS V14.01,2013-09-01 19:45:00,
2013-09-01 15:48:00,83.6,70.6,29.76,SSE,155,0.0,1.0,65,0.00,,BKN030,0.00,VWS V14.01,2013-09-01 19:48:00,
2013-09-01 15:53:00,83.8,70.3,29.76,South,182,0.0,5.0,64,0.00,,BKN030,0.00,VWS V14.01,2013-09-01 19:53:00,
2013-09-01 15:58:00,84.0,70.5,29.76,South,174,0.0,1.0,64,0.00,,BKN030,0.00,VWS V14.01,2013-09-01 19:58:00,
2013-09-01 16:00:00,84.0,70.5,29.76,South,174,0.0,1.0,64,0.00,,BKN047,0.00,VWS V14.01,2013-09-01 20:00:00,
2013-09-01 16:03:00,84.1,71.1,29.76,SW,219,0.0,6.0,65,0.00,,FEW034,0.00,VWS V14.01,2013-09-01 20:03:00,
2013-09-01 16:08:00,83.8,70.3,29.76,South,176,0.0,6.0,64,0.00,,FEW034,0.00,VWS V14.01,2013-09-01 20:08:00,
2013-09-01 16:13:00,83.8,70.8,29.76,SSW,199,0.0,5.0,65,0.00,,FEW034,0.00,VWS V14.01,2013-09-01 20:13:00,
2013-09-01 16:15:00,83.6,70.1,29.76,South,172,0.0,5.0,64,0.00,,BKN047,0.00,VWS V14.01,2013-09-01 20:15:00,
2013-09-01 16:18:00,83.4,70.4,29.76,South,176,0.0,5.0,65,0.00,,FEW034,0.00,VWS V14.01,2013-09-01 20:18:00,
2013-09-01 16:23:00,83.0,69.6,29.76,South,179,0.0,3.0,64,0.00,,FEW034,0.00,VWS V14.01,2013-09-01 20:23:00,
2013-09-01 16:28:00,83.4,69.9,29.76,South,181,0.0,3.0,64,0.00,,FEW034,0.00,VWS V14.01,2013-09-01 20:28:00,
2013-09-01 16:30:00,83.6,69.7,29.75,South,181,0.0,3.0,63,0.00,,BKN047,0.00,VWS V14.01,2013-09-01 20:30:00,
2013-09-01 16:33:00,84.0,69.6,29.75,South,169,0.0,7.0,62,0.00,,FEW034,0.00,VWS V14.01,2013-09-01 20:33:00,
2013-09-01 16:38:00,84.5,71.0,29.75,South,169,0.0,7.0,64,0.00,,FEW034,0.00,VWS V14.01,2013-09-01 20:38:00,
2013-09-01 16:43:00,84.3,68.9,29.75,SSW,203,5.0,8.0,60,0.00,,FEW034,0.00,VWS V14.01,2013-09-01 20:43:00,
2013-09-01 16:45:00,84.1,69.2,29.75,SSW,203,0.0,8.0,61,0.00,,BKN047,0.00,VWS V14.01,2013-09-01 20:45:00,
2013-09-01 16:48:00,84.1,68.7,29.75,SSW,213,0.0,6.0,60,0.00,,FEW034,0.00,VWS V14.01,2013-09-01 20:48:00,
2013-09-01 16:53:00,84.3,69.9,29.75,SSW,205,0.0,0.0,62,0.00,,FEW034,0.00,VWS V14.01,2013-09-01 20:53:00,
2013-09-01 16:58:00,84.0,69.6,29.75,SSW,205,0.0,1.0,62,0.00,,FEW034,0.00,VWS V14.01,2013-09-01 20:58:00,
2013-09-01 17:00:00,83.8,69.4,29.75,SSW,205,0.0,1.0,62,0.00,,BKN047,0.00,VWS V14.01,2013-09-01 21:00:00,
2013-09-01 17:03:00,84.0,70.1,29.75,South,171,0.0,6.0,63,0.00,,BKN080,0.00,VWS V14.01,2013-09-01 21:03:00,
2013-09-01 17:08:00,84.0,70.5,29.75,SE,126,0.0,6.0,64,0.00,,BKN080,0.00,VWS V14.01,2013-09-01 21:08:00,
2013-09-01 17:13:00,83.6,70.1,29.75,West,264,3.0,6.0,64,0.00,,BKN080,0.00,VWS V14.01,2013-09-01 21:13:00,
2013-09-01 17:15:00,83.4,69.5,29.74,West,264,0.0,6.0,63,0.00,,BKN047,0.00,VWS V14.01,2013-09-01 21:15:00,
2013-09-01 17:18:00,83.2,69.3,29.74,SW,227,3.0,5.0,63,0.00,,BKN080,0.00,VWS V14.01,2013-09-01 21:18:00,
2013-09-01 17:23:00,83.2,70.2,29.74,SW,227,0.0,5.0,65,0.00,,BKN080,0.00,VWS V14.01,2013-09-01 21:23:00,
2013-09-01 17:28:00,83.0,70.0,29.74,SSW,206,0.0,2.0,65,0.00,,BKN080,0.00,VWS V14.01,2013-09-01 21:28:00,
2013-09-01 17:30:00,83.0,70.5,29.74,SSW,206,0.0,2.0,66,0.00,,BKN047,0.00,VWS V14.01,2013-09-01 21:30:00,
2013-09-01 17:33:00,83.0,70.5,29.74,SSW,206,0.0,0.0,66,0.00,,BKN080,0.00,VWS V14.01,2013-09-01 21:33:00,
2013-09-01 17:38:00,83.4,69.9,29.74,SSW,209,0.0,10.0,64,0.00,,BKN080,0.00,VWS V14.01,2013-09-01 21:38:00,
2013-09-01 17:43:00,83.8,69.9,29.74,SW,222,0.0,7.0,63,0.00,,BKN080,0.00,VWS V14.01,2013-09-01 21:43:00,
2013-09-01 17:45:00,83.8,69.4,29.74,SSW,212,0.0,7.0,62,0.00,,BKN047,0.00,VWS V14.01,2013-09-01 21:45:00,
2013-09-01 17:48:00,84.0,69.6,29.74,SSW,212,0.0,6.0,62,0.00,,BKN080,0.00,VWS V14.01,2013-09-01 21:48:00,
2013-09-01 17:53:00,83.6,70.1,29.74,SSE,160,0.0,1.0,64,0.00,,BKN080,0.00,VWS V14.01,2013-09-01 21:53:00,
2013-09-01 17:58:00,83.2,70.2,29.74,South,188,0.0,2.0,65,0.00,,BKN080,0.00,VWS V14.01,2013-09-01 21:58:00,
2013-09-01 18:00:00,83.2,70.7,29.74,South,188,0.0,2.0,66,0.00,,BKN047,0.00,VWS V14.01,2013-09-01 22:00:00,
2013-09-01 18:03:00,83.2,69.8,29.74,South,188,0.0,2.0,64,0.00,,CLR,0.00,VWS V14.01,2013-09-01 22:03:00,
2013-09-01 18:08:00,83.0,70.0,29.74,South,169,0.0,3.0,65,0.00,,CLR,0.00,VWS V14.01,2013-09-01 22:08:00,
2013-09-01 18:13:00,82.6,69.7,29.74,South,185,0.0,5.0,65,0.00,,CLR,0.00,VWS V14.01,2013-09-01 22:13:00,
2013-09-01 18:15:00,82.6,70.1,29.74,SW,224,0.0,5.0,66,0.00,,BKN047,0.00,VWS V14.01,2013-09-01 22:15:00,
2013-09-01 18:18:00,82.6,70.1,29.74,South,188,0.0,2.0,66,0.00,,CLR,0.00,VWS V14.01,2013-09-01 22:18:00,
2013-09-01 18:23:00,82.4,69.9,29.74,SSW,205,0.0,5.0,66,0.00,,CLR,0.00,VWS V14.01,2013-09-01 22:23:00,
2013-09-01 18:28:00,82.2,70.6,29.74,SSW,205,0.0,0.0,68,0.00,,CLR,0.00,VWS V14.01,2013-09-01 22:28:00,
2013-09-01 18:30:00,82.0,70.0,29.74,SSW,205,0.0,0.0,67,0.00,,BKN047,0.00,VWS V14.01,2013-09-01 22:30:00,
2013-09-01 18:33:00,82.0,70.4,29.74,South,188,0.0,2.0,68,0.00,,CLR,0.00,VWS V14.01,2013-09-01 22:33:00,
2013-09-01 18:38:00,81.6,70.0,29.74,SSW,212,0.0,5.0,68,0.00,,CLR,0.00,VWS V14.01,2013-09-01 22:38:00,
2013-09-01 18:43:00,81.6,70.0,29.74,SSW,212,0.0,5.0,68,0.00,,CLR,0.00,VWS V14.01,2013-09-01 22:43:00,
2013-09-01 18:45:00,81.6,70.0,29.74,SSW,212,0.0,5.0,68,0.00,,BKN047,0.00,VWS V14.01,2013-09-01 22:45:00,
2013-09-01 18:48:00,81.4,70.3,29.74,SSW,212,0.0,1.0,69,0.00,,CLR,0.00,VWS V14.01,2013-09-01 22:48:00,
2013-09-01 18:53:00,81.2,70.5,29.74,SSW,212,0.0,0.0,70,0.00,,CLR,0.00,VWS V14.01,2013-09-01 22:53:00,
2013-09-01 18:58:00,81.1,70.4,29.74,SSW,212,0.0,2.0,70,0.00,,CLR,0.00,VWS V14.01,2013-09-01 22:58:00,
2013-09-01 19:00:00,81.1,70.4,29.74,SSW,212,0.0,2.0,70,0.00,,BKN047,0.00,VWS V14.01,2013-09-01 23:00:00,
2013-09-01 19:03:00,80.9,70.2,29.74,SSW,212,0.0,2.0,70,0.00,,BKN065,0.00,VWS V14.01,2013-09-01 23:03:00,
2013-09-01 19:08:00,80.7,70.4,29.74,SSE,161,0.0,3.0,71,0.00,,BKN065,0.00,VWS V14.01,2013-09-01 23:08:00,
2013-09-01 19:13:00,80.5,70.2,29.74,SSE,161,0.0,3.0,71,0.00,,BKN065,0.00,VWS V14.01,2013-09-01 23:13:00,
2013-09-01 19:15:00,80.3,70.1,29.74,SSE,161,0.0,2.0,71,0.00,,BKN047,0.00,VWS V14.01,2013-09-01 23:15:00,
2013-09-01 19:18:00,80.3,70.5,29.74,SSE,161,0.0,2.0,72,0.00,,BKN065,0.00,VWS V14.01,2013-09-01 23:18:00,
2013-09-01 19:23:00,80.1,70.3,29.74,SSE,162,0.0,0.0,72,0.00,,BKN065,0.00,VWS V14.01,2013-09-01 23:23:00,
2013-09-01 19:28:00,79.9,70.5,29.74,SSE,162,0.0,1.0,73,0.00,,BKN065,0.00,VWS V14.01,2013-09-01 23:28:00,
2013-09-01 19:30:00,79.8,70.4,29.75,SSE,162,0.0,2.0,73,0.00,,BKN047,0.00,VWS V14.01,2013-09-01 23:30:00,
2013-09-01 19:33:00,79.8,70.4,29.75,SSE,162,0.0,2.0,73,0.00,,BKN065,0.00,VWS V14.01,2013-09-01 23:33:00,
2013-09-01 19:38:00,79.4,70.4,29.75,SSE,162,0.0,0.0,74,0.00,,BKN065,0.00,VWS V14.01,2013-09-01 23:38:00,
2013-09-01 19:43:00,79.2,70.6,29.75,SSE,162,0.0,0.0,75,0.00,,BKN065,0.00,VWS V14.01,2013-09-01 23:43:00,
2013-09-01 19:45:00,79.2,70.6,29.75,SSE,162,0.0,0.0,75,0.00,,BKN047,0.00,VWS V14.01,2013-09-01 23:45:00,
2013-09-01 19:48:00,78.8,70.2,29.75,SSE,162,0.0,0.0,75,0.00,,BKN065,0.00,VWS V14.01,2013-09-01 23:48:00,
2013-09-01 19:53:00,78.6,70.4,29.75,SSE,162,0.0,0.0,76,0.00,,BKN065,0.00,VWS V14.01,2013-09-01 23:53:00,
2013-09-01 19:58:00,78.5,70.3,29.75,SSE,162,0.0,0.0,76,0.00,,BKN065,0.00,VWS V14.01,2013-09-01 23:58:00,
2013-09-01 20:00:00,78.5,70.3,29.76,SSE,162,0.0,0.0,76,0.00,,BKN047,0.00,VWS V14.01,2013-09-02 00:00:00,
2013-09-01 20:03:00,78.3,70.5,29.76,South,172,0.0,1.0,77,0.00,,OVC060,0.00,VWS V14.01,2013-09-02 00:03:00,
2013-09-01 20:08:00,78.3,70.5,29.76,South,172,0.0,1.0,77,0.00,,OVC060,0.00,VWS V14.01,2013-09-02 00:08:00,
2013-09-01 20:13:00,78.1,70.3,29.76,South,172,0.0,2.0,77,0.00,,OVC060,0.00,VWS V14.01,2013-09-02 00:13:00,
2013-09-01 20:15:00,78.1,70.3,29.76,South,172,0.0,2.0,77,0.00,,BKN047,0.00,VWS V14.01,2013-09-02 00:15:00,
2013-09-01 20:18:00,78.1,70.7,29.76,South,172,0.0,2.0,78,0.00,,OVC060,0.00,VWS V14.01,2013-09-02 00:18:00,
2013-09-01 20:23:00,77.9,70.5,29.76,South,172,0.0,1.0,78,0.00,,OVC060,0.00,VWS V14.01,2013-09-02 00:23:00,
2013-09-01 20:28:00,77.7,70.3,29.76,South,174,0.0,2.0,78,0.00,,OVC060,0.00,VWS V14.01,2013-09-02 00:28:00,
2013-09-01 20:30:00,77.7,70.3,29.76,South,175,0.0,2.0,78,0.00,,BKN047,0.00,VWS V14.01,2013-09-02 00:30:00,
2013-09-01 20:33:00,77.6,70.2,29.76,SSW,210,0.0,3.0,78,0.00,,OVC060,0.00,VWS V14.01,2013-09-02 00:33:00,
2013-09-01 20:38:00,77.4,70.0,29.76,SSW,210,0.0,3.0,78,0.00,,OVC060,0.00,VWS V14.01,2013-09-02 00:38:00,
2013-09-01 20:43:00,77.4,70.0,29.76,SSW,210,0.0,2.0,78,0.00,,OVC060,0.00,VWS V14.01,2013-09-02 00:43:00,
2013-09-01 20:45:00,77.2,69.8,29.76,SSW,210,0.0,2.0,78,0.00,,BKN047,0.00,VWS V14.01,2013-09-02 00:45:00,
2013-09-01 20:48:00,77.2,69.8,29.76,SSW,210,0.0,2.0,78,0.00,,OVC060,0.00,VWS V14.01,2013-09-02 00:48:00,
2013-09-01 20:53:00,76.8,69.8,29.76,SSW,210,0.0,1.0,79,0.00,,OVC060,0.00,VWS V14.01,2013-09-02 00:53:00,
2013-09-01 20:58:00,76.7,69.7,29.76,SSW,210,0.0,0.0,79,0.00,,OVC060,0.00,VWS V14.01,2013-09-02 00:58:00,
2013-09-01 21:00:00,76.5,69.9,29.76,SSW,210,0.0,0.0,80,0.00,,BKN047,0.00,VWS V14.01,2013-09-02 01:00:00,
2013-09-01 21:03:00,76.5,69.9,29.76,SSW,210,0.0,3.0,80,0.00,,CLR,0.00,VWS V14.01,2013-09-02 01:03:00,
2013-09-01 21:08:00,76.3,69.7,29.76,SSW,210,0.0,3.0,80,0.00,,CLR,0.00,VWS V14.01,2013-09-02 01:08:00,
2013-09-01 21:13:00,76.1,69.5,29.76,SSW,210,0.0,0.0,80,0.00,,CLR,0.00,VWS V14.01,2013-09-02 01:13:00,
2013-09-01 21:15:00,76.0,69.4,29.77,SSW,210,0.0,0.0,80,0.00,,BKN047,0.00,VWS V14.01,2013-09-02 01:15:00,
2013-09-01 21:18:00,76.0,69.8,29.77,SSW,210,0.0,0.0,81,0.00,,CLR,0.00,VWS V14.01,2013-09-02 01:18:00,
2013-09-01 21:23:00,75.6,69.4,29.77,SSW,210,0.0,0.0,81,0.00,,CLR,0.00,VWS V14.01,2013-09-02 01:23:00,
2013-09-01 21:28:00,75.4,69.2,29.77,SSW,210,0.0,0.0,81,0.00,,CLR,0.00,VWS V14.01,2013-09-02 01:28:00,
2013-09-01 21:30:00,75.4,69.2,29.77,SSW,210,0.0,0.0,81,0.00,,BKN047,0.00,VWS V14.01,2013-09-02 01:30:00,
2013-09-01 21:33:00,75.3,69.4,29.77,SSW,210,0.0,0.0,82,0.00,,CLR,0.00,VWS V14.01,2013-09-02 01:33:00,
2013-09-01 21:38:00,75.1,69.2,29.77,SSW,210,0.0,0.0,82,0.00,,CLR,0.00,VWS V14.01,2013-09-02 01:38:00,
2013-09-01 21:43:00,74.9,69.4,29.77,SSW,210,0.0,0.0,83,0.00,,CLR,0.00,VWS V14.01,2013-09-02 01:43:00,
2013-09-01 21:45:00,74.9,69.4,29.77,SSW,210,0.0,0.0,83,0.00,,BKN047,0.00,VWS V14.01,2013-09-02 01:45:00,
2013-09-01 21:48:00,74.7,69.6,29.77,SSW,210,0.0,0.0,84,0.00,,CLR,0.00,VWS V14.01,2013-09-02 01:48:00,
2013-09-01 21:53:00,74.6,69.4,29.77,SSW,210,0.0,0.0,84,0.00,,CLR,0.00,VWS V14.01,2013-09-02 01:53:00,
2013-09-01 21:58:00,74.4,69.6,29.77,SSW,210,0.0,0.0,85,0.00,,CLR,0.00,VWS V14.01,2013-09-02 01:58:00,
2013-09-01 22:00:00,74.4,69.6,29.77,SSW,210,0.0,0.0,85,0.00,,BKN047,0.00,VWS V14.01,2013-09-02 02:00:00,
2013-09-01 22:03:00,74.2,69.4,29.77,SSW,210,0.0,0.0,85,0.00,,CLR,0.00,VWS V14.01,2013-09-02 02:03:00,
2013-09-01 22:08:00,74.0,69.2,29.77,SSW,210,0.0,0.0,85,0.00,,CLR,0.00,VWS V14.01,2013-09-02 02:08:00,
2013-09-01 22:13:00,73.9,69.4,29.77,SSW,210,0.0,0.0,86,0.00,,CLR,0.00,VWS V14.01,2013-09-02 02:13:00,
2013-09-01 22:15:00,73.7,69.3,29.77,SSW,210,0.0,0.0,86,0.00,,BKN047,0.00,VWS V14.01,2013-09-02 02:15:00,
2013-09-01 22:18:00,73.7,69.3,29.77,SSW,210,0.0,0.0,86,0.00,,CLR,0.00,VWS V14.01,2013-09-02 02:18:00,
2013-09-01 22:23:00,73.5,69.4,29.77,SSW,210,0.0,0.0,87,0.00,,CLR,0.00,VWS V14.01,2013-09-02 02:23:00,
2013-09-01 22:28:00,73.2,69.1,29.77,SSW,210,0.0,0.0,87,0.00,,CLR,0.00,VWS V14.01,2013-09-02 02:28:00,
2013-09-01 22:30:00,73.2,69.1,29.77,SSW,210,0.0,0.0,87,0.00,,BKN047,0.00,VWS V14.01,2013-09-02 02:30:00,
2013-09-01 22:33:00,73.0,68.9,29.77,SSW,210,0.0,0.0,87,0.00,,CLR,0.00,VWS V14.01,2013-09-02 02:33:00,
2013-09-01 22:38:00,73.0,69.2,29.77,SSW,210,0.0,0.0,88,0.00,,CLR,0.00,VWS V14.01,2013-09-02 02:38:00,
2013-09-01 22:43:00,72.8,69.0,29.77,SSW,210,0.0,0.0,88,0.00,,CLR,0.00,VWS V14.01,2013-09-02 02:43:00,
2013-09-01 22:45:00,72.7,68.9,29.78,SSW,210,0.0,0.0,88,0.00,,BKN047,0.00,VWS V14.01,2013-09-02 02:45:00,
2013-09-01 22:48:00,72.7,68.9,29.78,SSW,210,0.0,0.0,88,0.00,,CLR,0.00,VWS V14.01,2013-09-02 02:48:00,
2013-09-01 22:53:00,72.5,68.8,29.78,SSW,210,0.0,0.0,88,0.00,,CLR,0.00,VWS V14.01,2013-09-02 02:53:00,
2013-09-01 22:58:00,72.3,68.9,29.78,SSW,210,0.0,0.0,89,0.00,,CLR,0.00,VWS V14.01,2013-09-02 02:58:00,
2013-09-01 23:00:00,72.3,68.9,29.78,SSW,210,0.0,0.0,89,0.00,,BKN047,0.00,VWS V14.01,2013-09-02 03:00:00,
2013-09-01 23:03:00,72.1,68.7,29.78,SSW,210,0.0,0.0,89,0.00,,CLR,0.00,VWS V14.01,2013-09-02 03:03:00,
2013-09-01 23:08:00,72.0,68.6,29.78,SSW,210,0.0,0.0,89,0.00,,CLR,0.00,VWS V14.01,2013-09-02 03:08:00,
2013-09-01 23:13:00,71.8,68.4,29.78,SSW,210,0.0,0.0,89,0.00,,CLR,0.00,VWS V14.01,2013-09-02 03:13:00,
2013-09-01 23:15:00,71.8,68.4,29.78,SSW,210,0.0,0.0,89,0.00,,BKN047,0.00,VWS V14.01,2013-09-02 03:15:00,
2013-09-01 23:18:00,71.6,68.2,29.78,SSW,210,0.0,0.0,89,0.00,,CLR,0.00,VWS V14.01,2013-09-02 03:18:00,
2013-09-01 23:23:00,71.6,68.5,29.78,SSW,210,0.0,0.0,90,0.00,,CLR,0.00,VWS V14.01,2013-09-02 03:23:00,
2013-09-01 23:28:00,71.5,68.4,29.78,SSW,210,0.0,0.0,90,0.00,,CLR,0.00,VWS V14.01,2013-09-02 03:28:00,
2013-09-01 23:30:00,71.5,68.4,29.78,SSW,210,0.0,0.0,90,0.00,,BKN047,0.00,VWS V14.01,2013-09-02 03:30:00,
2013-09-01 23:33:00,71.3,68.2,29.78,SSW,210,0.0,0.0,90,0.00,,CLR,0.00,VWS V14.01,2013-09-02 03:33:00,
2013-09-01 23:38:00,71.3,68.2,29.78,SSW,210,0.0,0.0,90,0.00,,CLR,0.00,VWS V14.01,2013-09-02 03:38:00,
2013-09-01 23:43:00,71.3,68.5,29.78,SSW,210,0.0,0.0,91,0.00,,CLR,0.00,VWS V14.01,2013-09-02 03:43:00,
2013-09-01 23:45:00,71.3,68.5,29.78,SSW,210,0.0,0.0,91,0.00,,BKN047,0.00,VWS V14.01,2013-09-02 03:45:00,
2013-09-01 23:48:00,71.3,68.5,29.78,SSW,210,0.0,0.0,91,0.00,,CLR,0.00,VWS V14.01,2013-09-02 03:48:00,
2013-09-01 23:53:00,71.3,68.5,29.78,SSW,210,0.0,0.0,91,0.00,,CLR,0.00,VWS V14.01,2013-09-02 03:53:00,
2013-09-01 23:58:00,71.3,68.5,29.78,SSW,210,0.0,0.0,91,0.00,,CLR,0.00,VWS V14.01,2013-09-02 03:58:00,